OneWeb SL0538

operational
NORAD ID: 56047 Int'l Des: 2023-043 Owner: ONEWEBN Country: UK Constellation: oneweb
LEOCIRCULARPOLARONEWEB_TYPE

OneWeb SL0538について

説明を読み込み中...

リアルタイム位置

3D地球を読み込み中...

次回通過

高度履歴

Altitude vs Time

uPlot chart will show altitude changes over time

軌道要素

1 56047U 23043B 25354.21540640 .00000167 00000-0 40377-3 0 9993
2 56047 87.9047 264.4115 0001481 65.1047 295.0237 13.16596909135421
Epoch: Dec 20, 2025 • Age: 9 hours

現在のステータス

高度 1204.1 km
速度 7.26 km/s
衛星直下点 47.42°N, 40.76°W
打ち上げ日 Mar 26, 2023
運用期間 2.7 years
タイプ internet

技術仕様

分類 Payload
質量 148.00 kg
乾燥質量 140.00 kg
総質量 148.00 kg
長さ 1.30 m
直径 1.00 m
スパン 5.00 m
形状 Trapezoid+2 pan
製造者 ONEWUS
バスタイプ ARROW
フェーズステータス In Orbit
所有者/国 ONEWEBN/UK

大規模コンステレーション

Loading constellations...